Location: Unspecified
(0.0000°N, 0.0000°E)
Time: 07:41:47
(UTC+00:00)

SR - All Passes

Search period start: 08 February 2023 00:00
Search period end: 18 February 2023 00:00
Orbit: 581 x 869 km, 66.7° (Epoch: 07 February)

Date Brightness Start Highest point End Pass type
(mag) Time Alt. Az. Time Alt. Az. Time Alt. Az.
08 Feb - 11:53:30 10° SSW 11:59:13 67° WNW 12:04:33 10° NNE daylight
08 Feb - 22:39:48 10° NE 22:42:15 15° ENE 22:44:46 10° ESE night (unlit)
09 Feb - 00:20:23 10° WNW 00:23:54 23° WSW 00:27:38 10° SSW night (unlit)
09 Feb - 11:03:16 10° S 11:08:48 48° ESE 11:14:00 10° NE daylight
09 Feb - 12:48:36 10° W 12:50:28 12° WNW 12:52:18 10° NW daylight
09 Feb - 23:29:07 10° NNW 23:33:27 71° WSW 23:38:08 10° SSE night (unlit)
10 Feb - 10:14:17 10° SSE 10:18:18 20° ESE 10:22:11 10° ENE daylight
10 Feb - 11:55:13 10° SW 12:00:08 30° WNW 12:04:47 10° N daylight
10 Feb - 22:39:06 10° N 22:43:06 36° ENE 22:47:23 10° SE night (unlit)
11 Feb - 11:04:03 10° SSW 11:09:47 78° WNW 11:15:08 10° NNE daylight
11 Feb - 21:50:58 10° NE 21:52:48 12° ENE 21:54:41 10° E night (unlit)
11 Feb - 23:30:39 10° NW 23:34:25 28° WSW 23:38:26 10° S night (unlit)
12 Feb - 10:13:59 10° S 10:19:22 41° ESE 10:24:25 10° NE daylight
12 Feb - 11:58:20 10° W 12:01:02 14° WNW 12:03:39 10° NW daylight
12 Feb - 22:39:36 10° NNW 22:43:59 85° WSW 22:48:42 10° SSE night (unlit)
13 Feb - 09:25:16 10° SSE 09:28:50 17° ESE 09:32:17 10° ENE daylight
13 Feb - 11:05:35 10° SW 11:10:42 35° WNW 11:15:31 10° N daylight
13 Feb - 21:49:47 10° N 21:53:39 31° ENE 21:57:45 10° SE night (unlit)
13 Feb - 23:33:57 10° W 23:35:28 11° WSW 23:37:00 10° SW night (unlit)
14 Feb - 10:14:36 10° SSW 10:20:21 89° WNW 10:25:40 10° NNE daylight
14 Feb - 21:02:42 10° ENE 21:03:20 10° ENE 21:03:58 10° E night (unlit)
14 Feb - 22:40:57 10° NW 22:44:56 33° WSW 22:49:11 10° S night (unlit)
15 Feb - 09:24:41 10° S 09:29:53 36° ESE 09:34:46 10° NE daylight
15 Feb - 11:08:17 10° WSW 11:11:34 16° WNW 11:14:46 10° NW daylight
15 Feb - 21:50:07 10° NNW 21:54:30 81° ENE 21:59:14 10° SSE night (unlit)
16 Feb - 08:36:22 10° SE 08:39:20 14° ESE 08:42:13 10° E daylight
16 Feb - 10:15:58 10° SW 10:21:14 40° WNW 10:26:11 10° N daylight
16 Feb - 21:00:29 10° NNE 21:04:10 26° ENE 21:08:03 10° SE night (unlit)
16 Feb - 22:43:37 10° W 22:45:56 14° WSW 22:48:20 10° SW night (unlit)
17 Feb - 09:25:09 10° SSW 09:30:52 79° ESE 09:36:10 10° NNE daylight
17 Feb - 21:51:16 10° NW 21:55:24 39° WSW 21:59:52 10° S night (unlit)
